• In Belarus
  • List of Countries
  • For 7 days
  • Water Temperature
  • Satellite Maps
  • Weather Map
  • Weather Widgets
  • user-avatar
    Login

    Hourly Weather Cochabamba

    Today, 18 July, Wednesday

    Time Temperature Precipitation Wind Pressure Humidity
    00:00 +12°C° 0 mm 2 mps 555 mmHg 72%
    01:00 +12°C° 0 mm 2 mps 555 mmHg 70%
    02:00 +12°C° 0 mm 2 mps 555 mmHg 69%
    03:00 +10°C° 0 mm 2 mps 554 mmHg 69%
    04:00 +10°C° 0 mm 2 mps 554 mmHg 68%
    05:00 +10°C° 0 mm 2 mps 554 mmHg 68%
    06:00 +12°C° 0 mm 2 mps 555 mmHg 66%
    07:00 +13°C° 0 mm 2 mps 555 mmHg 63%
    08:00 +13°C° 0 mm 2 mps 556 mmHg 61%
    09:00 +14°C° 0 mm 3 mps 557 mmHg 55%
    10:00 +17°C° 0 mm 3 mps 557 mmHg 48%
    11:00 +19°C° 0 mm 4 mps 558 mmHg 41%
    12:00 +19°C° 0 mm 4 mps 558 mmHg 42%
    13:00 +20°C° 0 mm 5 mps 557 mmHg 42%
    14:00 +20°C° 0 mm 5 mps 557 mmHg 43%
    15:00 +19°C° 0.1 mm 5 mps 556 mmHg 48%
    16:00 +17°C° 0.1 mm 5 mps 555 mmHg 52%
    17:00 +16°C° 0.1 mm 5 mps 554 mmHg 57%
    18:00 +15°C° 0.1 mm 4 mps 554 mmHg 62%
    19:00 +14°C° 0.1 mm 4 mps 554 mmHg 67%
    20:00 +13°C° 0.1 mm 3 mps 554 mmHg 73%
    21:00 +12°C° 0 mm 3 mps 554 mmHg 74%
    22:00 +12°C° 0 mm 3 mps 554 mmHg 76%
    23:00 +11°C° 0 mm 3 mps 554 mmHg 78%

    Tomorrow, 19 July, Thursday

    Time Temperature Precipitation Wind Pressure Humidity
    00:00 +11°C° 0 mm 3 mps 554 mmHg 78%
    01:00 +10°C° 0 mm 3 mps 553 mmHg 79%
    02:00 +10°C° 0 mm 3 mps 553 mmHg 79%
    03:00 +10°C° 0 mm 2 mps 553 mmHg 80%
    04:00 +10°C° 0 mm 2 mps 553 mmHg 81%
    05:00 +9°C° 0 mm 2 mps 552 mmHg 82%
    06:00 +10°C° 0 mm 2 mps 553 mmHg 78%
    07:00 +12°C° 0 mm 2 mps 554 mmHg 74%
    08:00 +12°C° 0 mm 2 mps 554 mmHg 70%
    09:00 +13°C° 0 mm 3 mps 555 mmHg 60%
    10:00 +17°C° 0 mm 4 mps 556 mmHg 49%
    11:00 +19°C° 0 mm 5 mps 557 mmHg 38%
    12:00 +19°C° 0 mm 6 mps 557 mmHg 39%
    13:00 +19°C° 0 mm 6 mps 556 mmHg 40%
    14:00 +20°C° 0 mm 7 mps 556 mmHg 41%
    15:00 +18°C° 0.1 mm 7 mps 555 mmHg 46%
    16:00 +17°C° 0.1 mm 6 mps 554 mmHg 51%
    17:00 +16°C° 0.1 mm 6 mps 553 mmHg 57%
    18:00 +15°C° 0.1 mm 5 mps 553 mmHg 62%
    19:00 +14°C° 0.1 mm 4 mps 554 mmHg 68%
    20:00 +13°C° 0.1 mm 3 mps 554 mmHg 73%
    21:00 +13°C° 0.2 mm 3 mps 554 mmHg 73%
    22:00 +13°C° 0.2 mm 3 mps 554 mmHg 73%
    23:00 +14°C° 0.2 mm 2 mps 555 mmHg 73%

    Day after tomorrow, 20 July, Friday

    Time Temperature Precipitation Wind Pressure Humidity
    00:00 +13°C° 0 mm 2 mps 554 mmHg 73%
    01:00 +13°C° 0 mm 2 mps 554 mmHg 74%
    02:00 +12°C° 0 mm 2 mps 554 mmHg 75%
    03:00 +12°C° 0 mm 2 mps 554 mmHg 73%
    04:00 +12°C° 0 mm 2 mps 553 mmHg 71%
    05:00 +12°C° 0 mm 2 mps 553 mmHg 70%
    06:00 +12°C° 0 mm 2 mps 554 mmHg 66%
    07:00 +13°C° 0 mm 2 mps 555 mmHg 63%
    08:00 +14°C° 0 mm 2 mps 555 mmHg 60%
    09:00 +14°C° 0.1 mm 3 mps 556 mmHg 54%
    10:00 +17°C° 0.1 mm 3 mps 557 mmHg 49%
    11:00 +18°C° 0.1 mm 3 mps 557 mmHg 43%
    12:00 +18°C° 0.3 mm 4 mps 557 mmHg 45%
    13:00 +18°C° 0.3 mm 4 mps 556 mmHg 47%
    14:00 +18°C° 0.3 mm 4 mps 556 mmHg 49%
    15:00 +17°C° 0.4 mm 4 mps 555 mmHg 52%
    16:00 +17°C° 0.4 mm 4 mps 555 mmHg 55%
    17:00 +15°C° 0.4 mm 4 mps 554 mmHg 58%
    18:00 +14°C° 0.3 mm 4 mps 554 mmHg 62%
    19:00 +14°C° 0.3 mm 3 mps 555 mmHg 66%
    20:00 +13°C° 0.3 mm 3 mps 555 mmHg 70%
    21:00 +13°C° 0.7 mm 2 mps 555 mmHg 71%
    22:00 +13°C° 0.7 mm 2 mps 556 mmHg 73%
    23:00 +13°C° 0.7 mm 2 mps 556 mmHg 75%

    21 July, Saturday

    Time Temperature Precipitation Wind Pressure Humidity
    00:00 +12°C° 1.4 mm 2 mps 556 mmHg 75%
    01:00 +12°C° 1.4 mm 2 mps 556 mmHg 76%
    02:00 +12°C° 1.4 mm 2 mps 555 mmHg 77%
    03:00 +10°C° 1.4 mm 2 mps 555 mmHg 77%
    04:00 +10°C° 1.4 mm 2 mps 555 mmHg 78%
    05:00 +11°C° 1.4 mm 1 mps 555 mmHg 79%
    06:00 +11°C° 0.8 mm 1 mps 556 mmHg 78%
    07:00 +11°C° 0.8 mm 1 mps 556 mmHg 77%
    08:00 +12°C° 0.8 mm 1 mps 557 mmHg 76%
    09:00 +12°C° 1.4 mm 1 mps 557 mmHg 75%
    10:00 +12°C° 1.4 mm 2 mps 557 mmHg 73%
    11:00 +13°C° 1.4 mm 2 mps 558 mmHg 72%
    12:00 +13°C° 1.4 mm 2 mps 557 mmHg 72%
    13:00 +13°C° 1.4 mm 2 mps 557 mmHg 73%
    14:00 +13°C° 1.4 mm 2 mps 556 mmHg 73%
    15:00 +12°C° 1.2 mm 2 mps 556 mmHg 74%
    16:00 +12°C° 1.2 mm 2 mps 556 mmHg 75%
    17:00 +12°C° 1.2 mm 2 mps 555 mmHg 76%
    18:00 +12°C° 1 mm 1 mps 555 mmHg 77%
    19:00 +11°C° 1 mm 1 mps 555 mmHg 79%
    20:00 +11°C° 1 mm 1 mps 555 mmHg 80%
    21:00 +11°C° 1 mm 1 mps 556 mmHg 81%
    22:00 +10°C° 1 mm 1 mps 556 mmHg 82%
    23:00 +10°C° 1 mm 1 mps 556 mmHg 82%

    22 July, Sunday

    Time Temperature Precipitation Wind Pressure Humidity
    00:00 +10°C° 1.2 mm 1 mps 556 mmHg 82%
    01:00 +10°C° 1.2 mm 1 mps 555 mmHg 82%
    02:00 +10°C° 1.2 mm 1 mps 555 mmHg 82%
    03:00 +10°C° 0.8 mm 1 mps 555 mmHg 81%
    04:00 +10°C° 0.8 mm 1 mps 555 mmHg 79%
    05:00 +10°C° 0.8 mm 1 mps 555 mmHg 78%
    06:00 +10°C° 0.1 mm 1 mps 555 mmHg 75%
    07:00 +11°C° 0.1 mm 1 mps 555 mmHg 72%
    08:00 +11°C° 0.1 mm 1 mps 556 mmHg 69%
    09:00 +13°C° 0 mm 2 mps 557 mmHg 62%
    10:00 +14°C° 0 mm 2 mps 557 mmHg 55%
    11:00 +16°C° 0 mm 2 mps 558 mmHg 48%
    12:00 +17°C° 0 mm 3 mps 558 mmHg 47%
    13:00 +17°C° 0 mm 3 mps 557 mmHg 47%
    14:00 +18°C° 0 mm 4 mps 557 mmHg 46%
    15:00 +17°C° 0.1 mm 4 mps 556 mmHg 48%
    16:00 +17°C° 0.1 mm 4 mps 555 mmHg 49%
    17:00 +17°C° 0.1 mm 4 mps 555 mmHg 51%
    18:00 +14°C° 0 mm 4 mps 555 mmHg 57%
    19:00 +13°C° 0 mm 3 mps 555 mmHg 63%
    20:00 +11°C° 0 mm 3 mps 554 mmHg 68%
    21:00 +11°C° 0 mm 3 mps 554 mmHg 64%
    22:00 +10°C° 0 mm 2 mps 554 mmHg 61%
    23:00 +10°C° 0 mm 2 mps 554 mmHg 57%

    23 July, Monday

    Time Temperature Precipitation Wind Pressure Humidity
    00:00 +9°C° 0 mm 2 mps 554 mmHg 52%
    01:00 +9°C° 0 mm 2 mps 554 mmHg 47%
    02:00 +9°C° 0 mm 2 mps 553 mmHg 42%
    03:00 +9°C° 0 mm 2 mps 553 mmHg 41%
    04:00 +9°C° 0 mm 2 mps 553 mmHg 40%
    05:00 +8°C° 0 mm 2 mps 553 mmHg 38%
    06:00 +9°C° 0 mm 2 mps 554 mmHg 38%
    07:00 +10°C° 0 mm 2 mps 555 mmHg 37%
    08:00 +12°C° 0 mm 2 mps 556 mmHg 37%
    09:00 +14°C° 0 mm 2 mps 557 mmHg 37%
    10:00 +16°C° 0 mm 2 mps 557 mmHg 36%
    11:00 +18°C° 0 mm 2 mps 558 mmHg 36%
    12:00 +18°C° 0 mm 2 mps 558 mmHg 37%
    13:00 +19°C° 0 mm 3 mps 557 mmHg 38%
    14:00 +20°C° 0 mm 3 mps 557 mmHg 39%
    15:00 +19°C° 0 mm 4 mps 556 mmHg 43%
    16:00 +18°C° 0 mm 4 mps 556 mmHg 47%
    17:00 +17°C° 0 mm 4 mps 555 mmHg 50%
    18:00 +16°C° 0.1 mm 3 mps 555 mmHg 56%
    19:00 +14°C° 0.1 mm 3 mps 555 mmHg 62%
    20:00 +14°C° 0.1 mm 2 mps 555 mmHg 68%
    21:00 +14°C° 0.1 mm 2 mps 556 mmHg 71%
    22:00 +13°C° 0.1 mm 2 mps 556 mmHg 73%
    23:00 +13°C° 0.1 mm 2 mps 556 mmHg 75%
    Show more